Starlink 4594

operational
NORAD ID: 53638 Int'l Des: 2022-104 Owner: SPXS Country: US Constellation: starlink
LEOCIRCULAR

Über Starlink 4594

Beschreibung wird geladen...

Live-Position

3D-Globus wird geladen...

Nächste Überflüge

Höhenverlauf

Altitude vs Time

uPlot chart will show altitude changes over time

Zweizeiliger Elementsatz

1 53638U 22104BC 25260.09527850 .00000044 00000-0 20863-4 0 9996
2 53638 53.2172 283.0528 0001364 84.6473 275.4675 15.08838448170026
Epoch: 17. Sept. 2025 • Age: 48 hours

Aktueller Status

Höhe 545.1 km
Geschwindigkeit 7.59 km/s
Subsatellitenpunkt -18.13°S, 126.36°W
Startdatum 28. Aug. 2022
Alter 3 years
Typ internet

Technische Details

Klassifizierung Payload
Masse 300.00 kg
Trockenmasse 290.00 kg
Gesamtmasse 300.00 kg
Länge 0.20 m
Durchmesser 2.80 m
Spannweite 9.00 m
Form Box + pan
Hersteller SPXS
Bus-Typ Starlink
Phasenstatus In Orbit
Besitzer/Staat SPXS/US

Große Konstellationen

Loading constellations...